Regional Weather Roundup
Issued by NWS Cleveland, OH

Home | Current Version | Previous Version | Graphics & Text | Print | Product List | Glossary On
Versions: 1 2 3 4 5 6 7 8 9 10 11 12 13 14 15 16 17 18 19 20 21 22 23 24 25 26 27 28 29 30 31 32 33 34 35 36 37 38 39 40 41 42 43 44 45 46 47 48 49 50
000
ASUS41 KCLE 290110
RWRCLE
OHIO REGIONAL WEATHER ROUNDUP
NATIONAL WEATHER SERVICE CLEVELAND, OH
900 PM EDT SAT MAR 28 2015

NOTE: "FAIR" INDICATES FEW OR NO CLOUDS BELOW 12,000 FEET WITH NO
SIGNIFICANT WEATHER AND/OR OBSTRUCTIONS TO VISIBILITY.

OHZ001>008-015>018-024>027-034-035-043-044-290200-
   NORTHWEST OHIO

CITY           SKY/WX    TMP DP  RH WIND       PRES   REMARKS
DEFIANCE       CLEAR     29  14  53 CALM      30.30S
FINDLAY        CLEAR     28  18  66 SW3       30.29R
TOLEDO EXPRESS CLEAR     27   9  46 SW3       30.28S
TOLEDO EXEC    CLEAR     32  11  41 W5        30.30R WCI  27
LIMA           CLEAR     30  17  58 CALM      30.29S
$$

OHZ009>014-019>023-028>033-038-089-290200-
   NORTHEAST OHIO

CITY           SKY/WX    TMP DP  RH WIND       PRES   REMARKS
CLE-HOPKINS    CLEAR     23  10  57 W3        30.32S
CLE-LAKEFRONT  CLEAR     24  14  65 W7        30.30S WCI  16
CUY CO. ARPT   CLEAR     23  16  74 W7        30.30R WCI  15
LORAIN-ELYRIA  CLEAR     24  15  68 S3        30.30S
ASHTABULA      CLEAR     23  10  57 W3        30.28R
AKRON-CANTON   CLEAR     22   8  55 NW7       30.27R WCI  13
WOOSTER        CLEAR     23  14  68 CALM      30.29R
MANSFIELD      CLEAR     23   8  52 CALM      30.27S
YOUNGSTOWN     CLEAR     21   7  54 W7        30.25R WCI  12
$$

OHZ042-051>053-060>062-070>072-077>081-290200-
  SOUTHWEST OHIO

CITY           SKY/WX    TMP DP  RH WIND       PRES   REMARKS
CINC-COVINGTON CLEAR     33  11  39 N6        30.30R WCI  28
CINC-LUNKEN    CLEAR     31  13  47 NE3       30.33S
HAMILTON       CLEAR     27  17  66 NE3       30.33R
DAYTON         CLEAR     28  15  58 N5        30.32R WCI  23
WRIGHT-PAT AFB CLEAR     29  13  50 N5        30.32R WCI  24
DAYTON GENERAL CLEAR     30  13  49 NW6       30.30R WCI  24
WILMINGTON     CLEAR     26  15  63 NE5       30.30R WCI  20
$$

OHZ036-037-039>041-045>050-054>059-063>069-073>076-082>088-290200-
  CENTRAL AND SOUTHEAST OHIO

CITY           SKY/WX    TMP DP  RH WIND       PRES   REMARKS
COLUMBUS       CLEAR     27  12  53 N5        30.32R WCI  22
OSU AIRPORT    CLEAR     26  11  52 NE3       30.31R
BOLTON FIELD   CLEAR    N/A N/A N/A CALM      30.32R
RICKENBACK AFB CLEAR     27  11  50 N5        30.32R WCI  22
NEWARK         CLEAR     24  12  60 CALM      30.31R
MARION         CLEAR     25  12  58 SE5       30.30R WCI  19
LANCASTER      CLEAR     27  16  63 N5        30.32R WCI  22
ZANESVILLE     CLEAR     24   9  52 NW7       30.31R WCI  16
NEW PHILLY     CLEAR     26  11  52 NW7       30.31R WCI  18
$$


USA.gov is the U.S. government's official web portal to all federal, state and local government web resources and services.